YAMAL 202

Last updated on Mon Jun 22 2026 00:03:03 GMT+0000 (Coordinated Universal Time)

1 28089U 03053A 26172.56555203 -.00000084 00000+0 00000+0 0 9998 2 28089 6.3538 70.8853 0003180 7.2732 198.7465 1.00270906 82744
UTC large
Height (km)
Speed (km/s)
/
Latitude / Longitude
Inclination (degrees)
Orbital Period (minutes)
Azimuth
Elevation
Range (km)
Doppler Factor

Next 0 passes for location: London (51.5072 / 0.1276)

No passes found over London.
YAMAL 202